Hourly Weather Bartniki

Today, 19 April, Monday

Time Temperature Precipitation Wind Pressure Humidity
00:00 +6°C° 0 mm 2 mps 748 mmHg 89%
01:00 +6°C° 0 mm 2 mps 748 mmHg 90%
02:00 +6°C° 0 mm 2 mps 748 mmHg 90%
03:00 +6°C° 0 mm 2 mps 748 mmHg 90%
04:00 +5°C° 0 mm 2 mps 748 mmHg 90%
05:00 +5°C° 0 mm 2 mps 748 mmHg 91%
06:00 +6°C° 0 mm 2 mps 748 mmHg 88%
07:00 +7°C° 0 mm 2 mps 748 mmHg 85%
08:00 +8°C° 0 mm 2 mps 748 mmHg 81%
09:00 +9°C° 0 mm 3 mps 748 mmHg 73%
10:00 +11°C° 0 mm 4 mps 748 mmHg 64%
11:00 +12°C° 0 mm 5 mps 747 mmHg 56%
12:00 +12°C° 0 mm 5 mps 747 mmHg 55%
13:00 +12°C° 0 mm 5 mps 747 mmHg 55%
14:00 +12°C° 0 mm 5 mps 747 mmHg 54%
15:00 +12°C° 0 mm 5 mps 747 mmHg 57%
16:00 +11°C° 0 mm 4 mps 747 mmHg 59%
17:00 +11°C° 0 mm 4 mps 747 mmHg 61%
18:00 +10°C° 0 mm 3 mps 747 mmHg 67%
19:00 +8°C° 0 mm 3 mps 747 mmHg 73%
20:00 +7°C° 0 mm 3 mps 747 mmHg 79%
21:00 +7°C° 0 mm 3 mps 747 mmHg 83%
22:00 +5°C° 0 mm 3 mps 747 mmHg 86%
23:00 +5°C° 0 mm 3 mps 746 mmHg 90%

Tomorrow, 20 April, Tuesday

Time Temperature Precipitation Wind Pressure Humidity
00:00 +4°C° 0 mm 3 mps 746 mmHg 91%
01:00 +4°C° 0 mm 3 mps 746 mmHg 93%
02:00 +4°C° 0 mm 3 mps 746 mmHg 94%
03:00 +5°C° 0 mm 2 mps 746 mmHg 94%
04:00 +4°C° 0 mm 2 mps 745 mmHg 94%
05:00 +4°C° 0 mm 2 mps 745 mmHg 95%
06:00 +4°C° 0 mm 3 mps 745 mmHg 91%
07:00 +5°C° 0 mm 3 mps 745 mmHg 88%
08:00 +7°C° 0 mm 3 mps 745 mmHg 85%
09:00 +7°C° 0.1 mm 3 mps 745 mmHg 83%
10:00 +7°C° 0.1 mm 3 mps 744 mmHg 82%
11:00 +8°C° 0.1 mm 2 mps 744 mmHg 80%
12:00 +8°C° 0.1 mm 2 mps 744 mmHg 75%
13:00 +9°C° 0.1 mm 2 mps 743 mmHg 69%
14:00 +10°C° 0.1 mm 3 mps 743 mmHg 63%
15:00 +10°C° 0.1 mm 3 mps 743 mmHg 64%
16:00 +10°C° 0.1 mm 3 mps 742 mmHg 65%
17:00 +10°C° 0.1 mm 3 mps 742 mmHg 66%
18:00 +8°C° 0 mm 3 mps 742 mmHg 72%
19:00 +7°C° 0 mm 2 mps 742 mmHg 78%
20:00 +5°C° 0 mm 2 mps 742 mmHg 85%
21:00 +5°C° 0 mm 2 mps 742 mmHg 87%
22:00 +5°C° 0 mm 1 mps 742 mmHg 89%
23:00 +5°C° 0 mm 1 mps 742 mmHg 91%

Day after tomorrow, 21 April, Wednesday

Time Temperature Precipitation Wind Pressure Humidity
00:00 +4°C° 0 mm 1 mps 741 mmHg 91%
01:00 +4°C° 0 mm 1 mps 741 mmHg 91%
02:00 +4°C° 0 mm 1 mps 741 mmHg 91%
03:00 +4°C° 0 mm 1 mps 741 mmHg 92%
04:00 +4°C° 0 mm 1 mps 740 mmHg 92%
05:00 +3°C° 0 mm 2 mps 740 mmHg 92%
06:00 +5°C° 0 mm 2 mps 740 mmHg 89%
07:00 +6°C° 0 mm 2 mps 740 mmHg 85%
08:00 +7°C° 0 mm 2 mps 740 mmHg 81%
09:00 +9°C° 0.2 mm 3 mps 740 mmHg 75%
10:00 +10°C° 0.2 mm 3 mps 739 mmHg 69%
11:00 +11°C° 0.2 mm 3 mps 739 mmHg 62%
12:00 +12°C° 0.5 mm 4 mps 739 mmHg 61%
13:00 +12°C° 0.5 mm 4 mps 739 mmHg 59%
14:00 +12°C° 0.5 mm 4 mps 739 mmHg 57%
15:00 +12°C° 0.3 mm 4 mps 739 mmHg 59%
16:00 +12°C° 0.3 mm 3 mps 739 mmHg 60%
17:00 +12°C° 0.3 mm 3 mps 739 mmHg 62%
18:00 +10°C° 0 mm 3 mps 739 mmHg 67%
19:00 +9°C° 0 mm 2 mps 739 mmHg 71%
20:00 +8°C° 0 mm 2 mps 739 mmHg 76%
21:00 +7°C° 0 mm 2 mps 739 mmHg 77%
22:00 +7°C° 0 mm 2 mps 739 mmHg 79%
23:00 +6°C° 0 mm 2 mps 739 mmHg 80%

22 April, Thursday

Time Temperature Precipitation Wind Pressure Humidity
00:00 +5°C° 0 mm 3 mps 739 mmHg 83%
01:00 +5°C° 0 mm 3 mps 739 mmHg 85%
02:00 +5°C° 0 mm 3 mps 739 mmHg 88%
03:00 +5°C° 0 mm 3 mps 739 mmHg 90%
04:00 +4°C° 0 mm 3 mps 739 mmHg 93%
05:00 +4°C° 0 mm 3 mps 739 mmHg 96%
06:00 +5°C° 0 mm 4 mps 739 mmHg 91%
07:00 +6°C° 0 mm 4 mps 740 mmHg 86%
08:00 +8°C° 0 mm 5 mps 740 mmHg 82%
09:00 +9°C° 0.1 mm 5 mps 741 mmHg 76%
10:00 +10°C° 0.1 mm 6 mps 741 mmHg 69%
11:00 +11°C° 0.1 mm 6 mps 741 mmHg 63%
12:00 +11°C° 0.1 mm 6 mps 741 mmHg 60%
13:00 +11°C° 0.1 mm 6 mps 742 mmHg 57%
14:00 +12°C° 0.1 mm 5 mps 742 mmHg 54%
15:00 +12°C° 0 mm 5 mps 742 mmHg 58%
16:00 +11°C° 0 mm 4 mps 742 mmHg 62%
17:00 +10°C° 0 mm 4 mps 742 mmHg 66%
18:00 +9°C° 0.5 mm 3 mps 742 mmHg 73%
19:00 +7°C° 0.5 mm 3 mps 742 mmHg 81%
20:00 +5°C° 0.5 mm 3 mps 742 mmHg 89%
21:00 +5°C° 1.8 mm 3 mps 742 mmHg 90%
22:00 +5°C° 1.8 mm 2 mps 742 mmHg 90%
23:00 +5°C° 1.8 mm 2 mps 742 mmHg 91%

23 April, Friday

Time Temperature Precipitation Wind Pressure Humidity
00:00 +5°C° 0.4 mm 2 mps 741 mmHg 91%
01:00 +5°C° 0.4 mm 2 mps 741 mmHg 91%
02:00 +4°C° 0.4 mm 2 mps 741 mmHg 92%
03:00 +4°C° 0 mm 2 mps 741 mmHg 90%
04:00 +4°C° 0 mm 2 mps 741 mmHg 88%
05:00 +4°C° 0 mm 2 mps 741 mmHg 86%
06:00 +4°C° 0 mm 3 mps 741 mmHg 82%
07:00 +4°C° 0 mm 3 mps 741 mmHg 78%
08:00 +5°C° 0 mm 4 mps 741 mmHg 73%
09:00 +5°C° 0.2 mm 5 mps 741 mmHg 74%
10:00 +4°C° 0.2 mm 6 mps 741 mmHg 75%
11:00 +4°C° 0.2 mm 7 mps 741 mmHg 76%
12:00 +4°C° 0.3 mm 7 mps 741 mmHg 75%
13:00 +4°C° 0.3 mm 7 mps 741 mmHg 73%
14:00 +4°C° 0.3 mm 7 mps 742 mmHg 72%
15:00 +5°C° 0.3 mm 7 mps 742 mmHg 72%
16:00 +5°C° 0.3 mm 6 mps 742 mmHg 72%
17:00 +5°C° 0.3 mm 6 mps 742 mmHg 72%
18:00 +4°C° 0 mm 6 mps 742 mmHg 76%
19:00 +3°C° 0 mm 5 mps 742 mmHg 80%
20:00 +2°C° 0 mm 5 mps 742 mmHg 84%
21:00 +1°C° 0 mm 5 mps 743 mmHg 85%
22:00 0°C° 0 mm 5 mps 743 mmHg 87%
23:00 0°C° 0 mm 5 mps 743 mmHg 89%

24 April, Saturday

Time Temperature Precipitation Wind Pressure Humidity
00:00 -1°C° 0 mm 5 mps 743 mmHg 88%
01:00 -1°C° 0 mm 5 mps 743 mmHg 87%
02:00 -2°C° 0 mm 5 mps 743 mmHg 86%
03:00 -3°C° 0 mm 4 mps 744 mmHg 88%
04:00 -3°C° 0 mm 4 mps 744 mmHg 90%
05:00 -4°C° 0 mm 4 mps 744 mmHg 92%
06:00 -3°C° 0 mm 4 mps 744 mmHg 83%
07:00 -1°C° 0 mm 4 mps 744 mmHg 74%
08:00 0°C° 0 mm 4 mps 744 mmHg 66%
09:00 +2°C° 0 mm 3 mps 744 mmHg 59%
10:00 +3°C° 0 mm 3 mps 744 mmHg 53%
11:00 +5°C° 0 mm 2 mps 744 mmHg 46%
12:00 +4°C° 0.1 mm 3 mps 743 mmHg 49%
13:00 +4°C° 0.1 mm 3 mps 743 mmHg 52%
14:00 +4°C° 0.1 mm 3 mps 743 mmHg 55%
15:00 +4°C° 0.2 mm 3 mps 743 mmHg 58%
16:00 +4°C° 0.2 mm 3 mps 743 mmHg 61%
17:00 +4°C° 0.2 mm 3 mps 743 mmHg 63%
18:00 +3°C° 0.2 mm 3 mps 743 mmHg 69%
19:00 +3°C° 0.2 mm 2 mps 743 mmHg 74%
20:00 +2°C° 0.2 mm 2 mps 743 mmHg 80%
21:00 +1°C° 0 mm 2 mps 743 mmHg 83%
22:00 0°C° 0 mm 3 mps 744 mmHg 86%
23:00 -1°C° 0 mm 3 mps 744 mmHg 88%
Show more